Precipitable_Water
0.31 0.32 0.35 0.36 0.38 0.38 0.38 0.40 0.43 0.48 0.49 0.47 0.44 0.42 0.42 0.44 0.45 0.45 0.47 0.51 0.55 0.55 0.53 0.52 0.52 0.53 0.53 0.54 0.56 0.56 0.56 0.56 0.58 0.59 0.61 0.61 0.60 0.60 0.60 0.59 0.55 0.54 0.57 0.59 0.60 0.57 0.53 0.50 0.51 0.53 0.58 0.61 0.69 0.73 0.74 0.76 0.79 0.80 0.82 0.80 0.77 0.78 0.74 0.69 0.65 0.66 0.73 0.78 0.74 0.75 0.82 0.86 0.85 0.91 0.90 0.92 0.94 0.96 0.97 0.96 0.96 0.93 0.90 0.87 0.85
0.31 0.32 0.35 0.37 0.37 0.37 0.37 0.40 0.43 0.47 0.48 0.46 0.44 0.43 0.42 0.43 0.45 0.45 0.44 0.48 0.54 0.54 0.53 0.52 0.52 0.53 0.53 0.54 0.56 0.57 0.57 0.57 0.57 0.58 0.58 0.58 0.56 0.56 0.55 0.55 0.54 0.53 0.53 0.54 0.57 0.59 0.58 0.54 0.50 0.49 0.50 0.47 0.48 0.54 0.64 0.71 0.73 0.73 0.75 0.78 0.76 0.74 0.76 0.71 0.67 0.66 0.65 0.75 0.73 0.76 0.77 0.82 0.79 0.89 0.88 0.89 0.91 0.94 0.93 0.93 0.94 0.93 0.91 0.88 0.84
0.32 0.33 0.34 0.35 0.36 0.37 0.38 0.39 0.42 0.46 0.46 0.45 0.43 0.43 0.42 0.43 0.45 0.44 0.44 0.45 0.51 0.54 0.54 0.53 0.52 0.53 0.53 0.54 0.55 0.56 0.57 0.58 0.59 0.58 0.58 0.57 0.55 0.53 0.53 0.53 0.52 0.51 0.51 0.52 0.54 0.58 0.58 0.57 0.55 0.54 0.52 0.47 0.45 0.44 0.47 0.54 0.65 0.68 0.69 0.72 0.72 0.73 0.72 0.71 0.67 0.63 0.64 0.67 0.75 0.72 0.72 0.75 0.77 0.81 0.87 0.89 0.91 0.92 0.91 0.91 0.92 0.94 0.94 0.91 0.87
0.32 0.33 0.34 0.35 0.37 0.37 0.36 0.38 0.41 0.44 0.44 0.44 0.43 0.43 0.43 0.43 0.44 0.44 0.44 0.45 0.47 0.51 0.54 0.54 0.53 0.52 0.53 0.54 0.55 0.56 0.57 0.58 0.59 0.59 0.59 0.58 0.57 0.55 0.54 0.54 0.53 0.53 0.53 0.55 0.56 0.56 0.57 0.58 0.58 0.58 0.55 0.50 0.47 0.43 0.42 0.43 0.49 0.60 0.65 0.67 0.69 0.69 0.70 0.70 0.69 0.66 0.65 0.63 0.68 0.69 0.72 0.71 0.74 0.81 0.85 0.88 0.89 0.89 0.90 0.90 0.92 0.91 0.91 0.91 0.90
0.32 0.33 0.34 0.34 0.36 0.35 0.35 0.37 0.39 0.43 0.43 0.44 0.43 0.43 0.43 0.43 0.44 0.44 0.44 0.44 0.46 0.49 0.52 0.54 0.53 0.53 0.52 0.53 0.54 0.55 0.56 0.57 0.58 0.59 0.60 0.60 0.59 0.57 0.54 0.55 0.55 0.55 0.56 0.56 0.57 0.57 0.56 0.56 0.59 0.58 0.55 0.52 0.51 0.48 0.44 0.40 0.41 0.45 0.53 0.62 0.66 0.68 0.69 0.68 0.67 0.67 0.64 0.63 0.66 0.71 0.73 0.71 0.73 0.78 0.83 0.82 0.85 0.87 0.88 0.86 0.87 0.87 0.88 0.90 0.90
0.31 0.33 0.34 0.34 0.35 0.34 0.34 0.35 0.38 0.41 0.43 0.43 0.43 0.44 0.43 0.43 0.43 0.44 0.44 0.43 0.45 0.46 0.48 0.50 0.51 0.51 0.53 0.54 0.55 0.55 0.56 0.56 0.56 0.57 0.58 0.59 0.59 0.58 0.55 0.53 0.54 0.55 0.55 0.56 0.56 0.57 0.57 0.57 0.57 0.56 0.53 0.51 0.52 0.53 0.50 0.44 0.42 0.42 0.44 0.50 0.58 0.64 0.66 0.67 0.69 0.68 0.65 0.63 0.65 0.65 0.69 0.68 0.68 0.71 0.78 0.80 0.79 0.78 0.81 0.83 0.85 0.86 0.86 0.86 0.88
0.31 0.32 0.33 0.34 0.34 0.34 0.34 0.35 0.38 0.41 0.42 0.43 0.44 0.44 0.43 0.43 0.43 0.42 0.43 0.44 0.44 0.44 0.45 0.46 0.48 0.48 0.50 0.52 0.52 0.53 0.53 0.54 0.54 0.55 0.56 0.58 0.58 0.57 0.54 0.52 0.52 0.52 0.55 0.57 0.56 0.56 0.58 0.57 0.58 0.56 0.54 0.52 0.51 0.51 0.52 0.49 0.45 0.43 0.45 0.48 0.52 0.57 0.61 0.64 0.66 0.67 0.65 0.62 0.63 0.66 0.65 0.68 0.68 0.66 0.73 0.78 0.78 0.77 0.74 0.75 0.77 0.83 0.86 0.86 0.85
0.30 0.31 0.33 0.33 0.34 0.35 0.36 0.37 0.39 0.41 0.42 0.43 0.43 0.42 0.42 0.43 0.42 0.43 0.44 0.43 0.43 0.44 0.44 0.44 0.45 0.46 0.47 0.47 0.48 0.49 0.49 0.49 0.50 0.51 0.53 0.55 0.55 0.55 0.54 0.52 0.51 0.51 0.54 0.57 0.58 0.56 0.56 0.56 0.57 0.57 0.56 0.54 0.53 0.52 0.53 0.51 0.50 0.44 0.45 0.46 0.48 0.52 0.55 0.59 0.62 0.62 0.62 0.60 0.60 0.60 0.63 0.64 0.66 0.69 0.72 0.73 0.70 0.71 0.75 0.74 0.72 0.75 0.80 0.85 0.87
0.29 0.30 0.32 0.33 0.34 0.36 0.38 0.39 0.40 0.41 0.41 0.41 0.42 0.41 0.42 0.42 0.42 0.42 0.42 0.42 0.43 0.43 0.45 0.46 0.45 0.44 0.45 0.44 0.44 0.44 0.42 0.42 0.44 0.45 0.47 0.48 0.51 0.52 0.52 0.51 0.51 0.52 0.55 0.58 0.59 0.59 0.56 0.54 0.55 0.57 0.57 0.55 0.55 0.54 0.54 0.53 0.50 0.47 0.46 0.45 0.43 0.46 0.49 0.54 0.57 0.57 0.57 0.58 0.58 0.60 0.58 0.60 0.64 0.63 0.63 0.64 0.64 0.64 0.71 0.75 0.74 0.78 0.81 0.81 0.85
0.28 0.30 0.31 0.32 0.35 0.37 0.38 0.38 0.39 0.40 0.39 0.39 0.40 0.41 0.41 0.41 0.40 0.40 0.40 0.41 0.42 0.43 0.44 0.45 0.46 0.45 0.45 0.45 0.45 0.44 0.43 0.43 0.43 0.44 0.44 0.45 0.45 0.47 0.49 0.50 0.51 0.51 0.52 0.54 0.57 0.58 0.57 0.54 0.55 0.57 0.56 0.55 0.53 0.52 0.52 0.53 0.52 0.51 0.49 0.47 0.44 0.42 0.44 0.46 0.49 0.52 0.55 0.54 0.55 0.56 0.53 0.53 0.60 0.63 0.63 0.65 0.70 0.72 0.70 0.71 0.70 0.75 0.79 0.79 0.81
0.28 0.29 0.30 0.33 0.36 0.37 0.37 0.37 0.39 0.38 0.38 0.39 0.40 0.39 0.38 0.39 0.38 0.37 0.38 0.40 0.41 0.42 0.44 0.44 0.45 0.46 0.46 0.45 0.44 0.44 0.44 0.44 0.44 0.44 0.44 0.45 0.45 0.45 0.46 0.47 0.50 0.51 0.52 0.51 0.51 0.55 0.56 0.54 0.55 0.55 0.55 0.55 0.54 0.51 0.50 0.51 0.51 0.51 0.50 0.50 0.51 0.47 0.42 0.41 0.44 0.48 0.49 0.51 0.54 0.55 0.52 0.52 0.57 0.63 0.64 0.66 0.69 0.69 0.69 0.70 0.70 0.72 0.72 0.70 0.68
0.27 0.29 0.31 0.33 0.36 0.36 0.37 0.37 0.38 0.37 0.37 0.37 0.38 0.37 0.37 0.37 0.36 0.36 0.36 0.37 0.39 0.41 0.42 0.43 0.45 0.46 0.46 0.45 0.44 0.44 0.43 0.44 0.43 0.43 0.44 0.44 0.45 0.46 0.46 0.46 0.47 0.49 0.50 0.51 0.52 0.53 0.54 0.53 0.54 0.54 0.54 0.54 0.54 0.52 0.50 0.49 0.50 0.51 0.50 0.49 0.51 0.53 0.52 0.47 0.42 0.40 0.43 0.45 0.49 0.50 0.51 0.50 0.54 0.60 0.62 0.64 0.66 0.70 0.71 0.71 0.70 0.70 0.70 0.71 0.71
0.27 0.29 0.31 0.33 0.34 0.37 0.38 0.37 0.37 0.37 0.36 0.36 0.36 0.35 0.34 0.34 0.34 0.34 0.34 0.36 0.38 0.38 0.39 0.41 0.43 0.45 0.46 0.44 0.43 0.43 0.42 0.42 0.42 0.42 0.43 0.43 0.44 0.45 0.45 0.46 0.46 0.47 0.48 0.50 0.50 0.51 0.52 0.52 0.52 0.53 0.53 0.54 0.54 0.53 0.52 0.49 0.49 0.50 0.50 0.49 0.50 0.53 0.55 0.54 0.52 0.49 0.46 0.43 0.45 0.48 0.51 0.53 0.55 0.59 0.65 0.66 0.69 0.66 0.69 0.68 0.69 0.71 0.73 0.73 0.74
0.27 0.29 0.31 0.32 0.34 0.36 0.37 0.37 0.37 0.37 0.36 0.34 0.33 0.32 0.31 0.31 0.33 0.34 0.34 0.35 0.35 0.36 0.38 0.39 0.41 0.42 0.43 0.43 0.42 0.42 0.42 0.42 0.42 0.42 0.42 0.43 0.43 0.44 0.44 0.44 0.45 0.47 0.48 0.49 0.50 0.50 0.50 0.49 0.49 0.50 0.52 0.54 0.55 0.54 0.52 0.50 0.48 0.48 0.48 0.48 0.49 0.52 0.55 0.56 0.54 0.53 0.52 0.48 0.46 0.46 0.53 0.58 0.56 0.62 0.68 0.72 0.67 0.65 0.67 0.66 0.71 0.70 0.71 0.72 0.79
0.27 0.29 0.30 0.32 0.34 0.35 0.37 0.37 0.38 0.38 0.36 0.35 0.32 0.30 0.30 0.31 0.32 0.33 0.33 0.34 0.34 0.35 0.36 0.37 0.38 0.40 0.41 0.42 0.41 0.41 0.41 0.42 0.41 0.42 0.42 0.42 0.42 0.43 0.43 0.43 0.43 0.44 0.46 0.48 0.49 0.50 0.50 0.50 0.50 0.51 0.53 0.53 0.54 0.54 0.51 0.49 0.48 0.47 0.47 0.47 0.48 0.51 0.54 0.55 0.55 0.54 0.54 0.55 0.54 0.54 0.58 0.61 0.62 0.64 0.67 0.69 0.71 0.72 0.72 0.71 0.72 0.73 0.75 0.80 0.80
0.27 0.29 0.30 0.31 0.32 0.35 0.36 0.37 0.38 0.38 0.37 0.36 0.32 0.30 0.29 0.29 0.29 0.31 0.32 0.33 0.34 0.36 0.37 0.38 0.38 0.39 0.40 0.41 0.40 0.39 0.40 0.41 0.40 0.41 0.41 0.41 0.41 0.41 0.41 0.40 0.40 0.40 0.41 0.43 0.44 0.47 0.48 0.48 0.48 0.49 0.50 0.51 0.51 0.51 0.50 0.50 0.48 0.47 0.45 0.47 0.48 0.51 0.52 0.56 0.57 0.56 0.57 0.58 0.60 0.61 0.63 0.65 0.65 0.65 0.67 0.68 0.69 0.71 0.74 0.76 0.76 0.75 0.72 0.68 0.67
0.27 0.29 0.29 0.30 0.32 0.34 0.36 0.36 0.38 0.38 0.38 0.36 0.33 0.31 0.29 0.28 0.29 0.30 0.30 0.32 0.34 0.35 0.36 0.37 0.39 0.40 0.40 0.40 0.39 0.38 0.38 0.39 0.39 0.40 0.40 0.40 0.40 0.39 0.39 0.38 0.38 0.38 0.38 0.40 0.41 0.42 0.45 0.45 0.45 0.46 0.46 0.46 0.47 0.48 0.48 0.49 0.47 0.46 0.45 0.46 0.48 0.49 0.51 0.55 0.57 0.59 0.59 0.59 0.59 0.61 0.62 0.63 0.64 0.64 0.65 0.68 0.70 0.72 0.70 0.66 0.64 0.68 0.65 0.61 0.65
0.27 0.28 0.29 0.30 0.32 0.34 0.36 0.37 0.37 0.38 0.38 0.36 0.34 0.33 0.32 0.31 0.29 0.30 0.29 0.31 0.32 0.34 0.36 0.37 0.38 0.39 0.39 0.40 0.40 0.38 0.38 0.39 0.39 0.39 0.38 0.38 0.37 0.36 0.36 0.35 0.35 0.35 0.35 0.37 0.38 0.40 0.41 0.44 0.45 0.44 0.44 0.45 0.46 0.46 0.47 0.47 0.44 0.44 0.44 0.45 0.45 0.47 0.50 0.56 0.58 0.61 0.65 0.64 0.63 0.61 0.60 0.61 0.62 0.61 0.63 0.67 0.72 0.74 0.70 0.62 0.66 0.68 0.63 0.64 0.63
0.28 0.28 0.29 0.31 0.33 0.34 0.36 0.37 0.38 0.38 0.38 0.37 0.36 0.34 0.32 0.30 0.30 0.30 0.30 0.31 0.32 0.34 0.35 0.35 0.36 0.37 0.38 0.38 0.40 0.39 0.39 0.39 0.40 0.38 0.38 0.37 0.35 0.34 0.33 0.32 0.31 0.31 0.32 0.33 0.35 0.37 0.38 0.40 0.41 0.42 0.42 0.43 0.43 0.43 0.43 0.43 0.42 0.42 0.43 0.45 0.44 0.46 0.51 0.55 0.56 0.56 0.59 0.61 0.59 0.59 0.58 0.61 0.61 0.61 0.61 0.64 0.71 0.75 0.74 0.71 0.71 0.68 0.64 0.65 0.67
0.29 0.30 0.30 0.32 0.34 0.35 0.37 0.37 0.38 0.38 0.38 0.39 0.38 0.36 0.34 0.32 0.31 0.30 0.30 0.29 0.30 0.33 0.35 0.35 0.35 0.36 0.37 0.38 0.39 0.39 0.39 0.38 0.39 0.37 0.36 0.35 0.34 0.33 0.32 0.30 0.28 0.29 0.30 0.31 0.31 0.33 0.35 0.36 0.37 0.38 0.39 0.40 0.40 0.41 0.41 0.42 0.42 0.43 0.44 0.44 0.44 0.46 0.53 0.55 0.56 0.55 0.55 0.56 0.56 0.56 0.56 0.59 0.58 0.56 0.56 0.60 0.69 0.74 0.76 0.76 0.74 0.72 0.68 0.68 0.72
0.32 0.30 0.31 0.32 0.34 0.35 0.37 0.37 0.37 0.39 0.41 0.40 0.39 0.38 0.35 0.33 0.33 0.32 0.30 0.29 0.29 0.31 0.34 0.35 0.35 0.36 0.37 0.38 0.38 0.39 0.40 0.39 0.39 0.38 0.36 0.35 0.34 0.32 0.31 0.30 0.29 0.29 0.28 0.29 0.30 0.30 0.31 0.33 0.34 0.36 0.38 0.40 0.41 0.42 0.42 0.42 0.43 0.44 0.45 0.45 0.47 0.50 0.54 0.53 0.55 0.56 0.54 0.53 0.53 0.54 0.55 0.53 0.50 0.52 0.55 0.59 0.64 0.72 0.78 0.79 0.80 0.79 0.77 0.76 0.78
0.33 0.31 0.31 0.32 0.34 0.36 0.37 0.38 0.38 0.39 0.42 0.42 0.38 0.37 0.37 0.37 0.36 0.34 0.32 0.30 0.29 0.30 0.33 0.34 0.35 0.35 0.36 0.37 0.38 0.38 0.40 0.40 0.39 0.38 0.37 0.35 0.34 0.32 0.31 0.30 0.30 0.28 0.27 0.28 0.28 0.28 0.29 0.31 0.33 0.35 0.37 0.39 0.40 0.42 0.42 0.42 0.43 0.44 0.44 0.46 0.49 0.51 0.52 0.53 0.55 0.56 0.55 0.52 0.50 0.50 0.51 0.51 0.49 0.51 0.54 0.58 0.61 0.65 0.73 0.80 0.84 0.85 0.87 0.88 0.85
0.33 0.31 0.31 0.33 0.35 0.36 0.38 0.37 0.37 0.39 0.41 0.41 0.38 0.37 0.38 0.37 0.36 0.35 0.33 0.31 0.30 0.31 0.32 0.33 0.33 0.34 0.35 0.36 0.37 0.37 0.38 0.38 0.39 0.37 0.36 0.34 0.33 0.32 0.31 0.30 0.29 0.29 0.26 0.26 0.26 0.27 0.29 0.30 0.32 0.34 0.36 0.37 0.39 0.40 0.42 0.42 0.42 0.42 0.43 0.45 0.48 0.51 0.52 0.52 0.52 0.53 0.52 0.50 0.48 0.48 0.50 0.51 0.49 0.49 0.52 0.56 0.60 0.64 0.67 0.74 0.82 0.87 0.89 0.91 0.92
0.34 0.31 0.31 0.33 0.36 0.37 0.37 0.38 0.37 0.39 0.40 0.40 0.39 0.38 0.38 0.37 0.36 0.34 0.33 0.33 0.32 0.31 0.32 0.32 0.32 0.32 0.33 0.33 0.34 0.34 0.35 0.36 0.37 0.37 0.36 0.34 0.33 0.31 0.30 0.30 0.29 0.29 0.28 0.27 0.27 0.27 0.27 0.28 0.30 0.32 0.34 0.35 0.36 0.38 0.40 0.42 0.42 0.42 0.43 0.44 0.46 0.49 0.51 0.50 0.50 0.50 0.51 0.49 0.46 0.47 0.48 0.51 0.50 0.49 0.51 0.55 0.58 0.63 0.66 0.71 0.77 0.85 0.88 0.90 0.91
0.33 0.31 0.31 0.33 0.36 0.37 0.38 0.37 0.37 0.37 0.39 0.40 0.38 0.38 0.38 0.37 0.34 0.34 0.34 0.34 0.32 0.31 0.31 0.32 0.31 0.32 0.32 0.32 0.32 0.32 0.33 0.35 0.36 0.36 0.35 0.34 0.33 0.31 0.30 0.29 0.29 0.29 0.27 0.27 0.27 0.26 0.26 0.27 0.29 0.30 0.31 0.33 0.34 0.36 0.38 0.40 0.41 0.41 0.42 0.43 0.44 0.46 0.48 0.49 0.49 0.49 0.46 0.45 0.46 0.46 0.48 0.49 0.49 0.49 0.52 0.54 0.58 0.60 0.63 0.68 0.74 0.80 0.87 0.90 0.91
0.32 0.30 0.31 0.34 0.36 0.37 0.37 0.37 0.37 0.37 0.38 0.40 0.39 0.39 0.38 0.36 0.35 0.34 0.34 0.34 0.33 0.32 0.31 0.31 0.31 0.31 0.31 0.31 0.31 0.31 0.32 0.33 0.34 0.35 0.34 0.33 0.31 0.30 0.29 0.29 0.28 0.28 0.27 0.26 0.26 0.25 0.25 0.26 0.27 0.28 0.29 0.31 0.32 0.33 0.34 0.35 0.38 0.40 0.41 0.42 0.43 0.44 0.45 0.47 0.47 0.46 0.44 0.45 0.45 0.44 0.46 0.48 0.48 0.48 0.51 0.52 0.51 0.51 0.57 0.62 0.67 0.72 0.81 0.83 0.84
0.32 0.31 0.31 0.34 0.37 0.37 0.36 0.36 0.36 0.37 0.38 0.39 0.40 0.40 0.39 0.37 0.35 0.35 0.34 0.34 0.34 0.33 0.31 0.30 0.30 0.30 0.30 0.30 0.30 0.30 0.31 0.32 0.33 0.33 0.33 0.31 0.30 0.29 0.29 0.28 0.28 0.27 0.26 0.26 0.25 0.25 0.25 0.26 0.26 0.27 0.27 0.28 0.29 0.30 0.32 0.34 0.36 0.38 0.40 0.41 0.42 0.44 0.45 0.45 0.45 0.45 0.46 0.47 0.46 0.45 0.45 0.47 0.50 0.49 0.48 0.48 0.46 0.50 0.54 0.58 0.62 0.66 0.73 0.78 0.80
0.32 0.31 0.32 0.34 0.36 0.37 0.36 0.37 0.36 0.36 0.37 0.38 0.38 0.39 0.39 0.38 0.36 0.35 0.34 0.34 0.34 0.33 0.31 0.29 0.29 0.29 0.29 0.29 0.28 0.28 0.29 0.31 0.32 0.32 0.32 0.31 0.29 0.29 0.29 0.29 0.28 0.26 0.25 0.24 0.24 0.25 0.25 0.26 0.27 0.27 0.27 0.27 0.27 0.27 0.28 0.30 0.32 0.33 0.35 0.38 0.40 0.43 0.45 0.46 0.47 0.46 0.47 0.48 0.49 0.49 0.47 0.46 0.47 0.48 0.48 0.47 0.45 0.48 0.53 0.54 0.56 0.59 0.68 0.73 0.75
0.33 0.32 0.33 0.34 0.36 0.38 0.38 0.36 0.36 0.36 0.38 0.39 0.40 0.41 0.40 0.38 0.37 0.36 0.36 0.36 0.35 0.33 0.31 0.29 0.29 0.29 0.29 0.28 0.27 0.27 0.28 0.30 0.31 0.33 0.32 0.31 0.29 0.28 0.28 0.28 0.27 0.26 0.26 0.25 0.25 0.25 0.25 0.24 0.23 0.23 0.23 0.22 0.22 0.23 0.24 0.25 0.26 0.29 0.32 0.34 0.37 0.40 0.42 0.44 0.43 0.43 0.45 0.47 0.48 0.48 0.47 0.47 0.46 0.48 0.48 0.46 0.45 0.46 0.51 0.52 0.54 0.55 0.59 0.66 0.70
0.33 0.32 0.33 0.34 0.36 0.37 0.37 0.36 0.36 0.37 0.37 0.38 0.39 0.40 0.43 0.42 0.40 0.38 0.37 0.37 0.36 0.34 0.31 0.28 0.28 0.29 0.28 0.28 0.28 0.27 0.28 0.31 0.34 0.32 0.31 0.30 0.30 0.29 0.29 0.29 0.27 0.26 0.26 0.25 0.25 0.24 0.22 0.22 0.22 0.21 0.21 0.20 0.20 0.20 0.21 0.21 0.22 0.23 0.25 0.28 0.31 0.34 0.38 0.41 0.43 0.43 0.44 0.45 0.46 0.48 0.48 0.49 0.47 0.47 0.46 0.46 0.46 0.46 0.47 0.48 0.49 0.53 0.52 0.55 0.64
0.33 0.33 0.33 0.33 0.35 0.36 0.36 0.35 0.36 0.36 0.37 0.38 0.38 0.38 0.38 0.39 0.41 0.40 0.39 0.37 0.35 0.32 0.31 0.29 0.29 0.29 0.28 0.27 0.28 0.30 0.32 0.33 0.33 0.32 0.31 0.30 0.30 0.30 0.29 0.28 0.27 0.26 0.25 0.23 0.21 0.19 0.18 0.18 0.19 0.19 0.19 0.18 0.18 0.19 0.19 0.20 0.20 0.21 0.22 0.24 0.25 0.28 0.32 0.36 0.40 0.41 0.42 0.43 0.44 0.45 0.47 0.49 0.49 0.49 0.47 0.47 0.47 0.47 0.46 0.46 0.46 0.49 0.50 0.52 0.57
0.32 0.32 0.33 0.34 0.35 0.35 0.36 0.35 0.35 0.35 0.36 0.38 0.38 0.38 0.37 0.35 0.36 0.38 0.38 0.35 0.33 0.31 0.29 0.28 0.28 0.29 0.29 0.30 0.29 0.30 0.33 0.33 0.32 0.32 0.32 0.31 0.31 0.30 0.29 0.27 0.25 0.23 0.22 0.22 0.19 0.18 0.18 0.17 0.18 0.18 0.18 0.18 0.18 0.18 0.18 0.18 0.19 0.19 0.19 0.20 0.20 0.22 0.24 0.27 0.33 0.36 0.38 0.39 0.40 0.41 0.42 0.45 0.48 0.49 0.49 0.48 0.48 0.47 0.46 0.44 0.42 0.42 0.45 0.49 0.54
0.33 0.33 0.34 0.35 0.35 0.35 0.35 0.34 0.34 0.35 0.35 0.36 0.37 0.37 0.35 0.34 0.32 0.32 0.33 0.33 0.31 0.30 0.28 0.28 0.29 0.29 0.30 0.30 0.31 0.32 0.33 0.34 0.33 0.32 0.32 0.32 0.31 0.29 0.27 0.25 0.23 0.23 0.21 0.19 0.18 0.18 0.18 0.18 0.18 0.18 0.18 0.18 0.18 0.18 0.18 0.19 0.19 0.19 0.18 0.18 0.18 0.20 0.22 0.23 0.26 0.28 0.32 0.35 0.37 0.38 0.39 0.41 0.43 0.46 0.48 0.48 0.48 0.47 0.47 0.45 0.43 0.42 0.41 0.41 0.48
0.35 0.34 0.34 0.34 0.34 0.34 0.33 0.32 0.32 0.34 0.36 0.37 0.37 0.37 0.36 0.34 0.32 0.30 0.27 0.28 0.28 0.27 0.27 0.28 0.29 0.30 0.31 0.32 0.34 0.35 0.35 0.34 0.33 0.33 0.32 0.31 0.30 0.28 0.25 0.23 0.22 0.22 0.20 0.19 0.18 0.18 0.19 0.19 0.19 0.18 0.18 0.19 0.19 0.19 0.19 0.19 0.19 0.19 0.19 0.19 0.19 0.19 0.19 0.21 0.20 0.21 0.23 0.26 0.31 0.35 0.36 0.37 0.39 0.40 0.43 0.47 0.48 0.50 0.49 0.48 0.46 0.43 0.40 0.40 0.41
0.37 0.37 0.37 0.36 0.35 0.34 0.32 0.31 0.32 0.34 0.36 0.36 0.37 0.37 0.35 0.33 0.31 0.27 0.25 0.25 0.24 0.23 0.24 0.27 0.31 0.32 0.32 0.35 0.38 0.38 0.36 0.34 0.33 0.32 0.31 0.30 0.28 0.26 0.23 0.21 0.19 0.20 0.20 0.20 0.19 0.19 0.19 0.19 0.19 0.19 0.19 0.18 0.18 0.19 0.19 0.20 0.20 0.20 0.20 0.19 0.19 0.18 0.18 0.18 0.19 0.20 0.20 0.20 0.21 0.26 0.31 0.32 0.34 0.36 0.37 0.40 0.45 0.47 0.49 0.51 0.49 0.46 0.42 0.40 0.40
0.39 0.37 0.37 0.37 0.37 0.35 0.33 0.31 0.31 0.32 0.33 0.35 0.36 0.36 0.34 0.30 0.27 0.24 0.23 0.23 0.23 0.23 0.26 0.29 0.32 0.34 0.36 0.38 0.40 0.38 0.36 0.34 0.33 0.32 0.30 0.29 0.26 0.24 0.20 0.19 0.19 0.19 0.20 0.20 0.20 0.21 0.21 0.21 0.21 0.20 0.20 0.20 0.20 0.19 0.19 0.19 0.20 0.22 0.22 0.22 0.20 0.19 0.18 0.18 0.19 0.19 0.20 0.20 0.19 0.20 0.22 0.25 0.28 0.30 0.31 0.32 0.36 0.41 0.47 0.51 0.52 0.51 0.48 0.45 0.42
0.44 0.40 0.38 0.37 0.36 0.34 0.33 0.31 0.31 0.32 0.34 0.35 0.36 0.35 0.32 0.28 0.24 0.23 0.23 0.23 0.24 0.27 0.29 0.31 0.33 0.36 0.38 0.40 0.40 0.37 0.36 0.34 0.32 0.31 0.29 0.27 0.24 0.22 0.20 0.20 0.19 0.20 0.20 0.20 0.20 0.21 0.21 0.22 0.22 0.22 0.22 0.21 0.20 0.20 0.20 0.20 0.21 0.21 0.23 0.23 0.23 0.21 0.20 0.20 0.20 0.20 0.20 0.19 0.18 0.18 0.18 0.19 0.20 0.22 0.25 0.27 0.29 0.32 0.38 0.45 0.50 0.53 0.53 0.51 0.48
0.55 0.49 0.44 0.40 0.37 0.35 0.34 0.33 0.33 0.34 0.36 0.37 0.37 0.36 0.33 0.29 0.26 0.25 0.25 0.26 0.28 0.30 0.31 0.33 0.35 0.36 0.37 0.38 0.39 0.37 0.36 0.33 0.31 0.29 0.27 0.24 0.23 0.21 0.20 0.20 0.20 0.20 0.20 0.20 0.21 0.22 0.22 0.23 0.23 0.24 0.24 0.24 0.23 0.22 0.21 0.21 0.21 0.21 0.22 0.23 0.23 0.22 0.22 0.21 0.21 0.21 0.21 0.20 0.18 0.17 0.18 0.18 0.18 0.19 0.20 0.22 0.25 0.28 0.31 0.36 0.42 0.47 0.51 0.54 0.53
0.63 0.58 0.53 0.50 0.47 0.41 0.38 0.39 0.41 0.43 0.44 0.44 0.44 0.42 0.36 0.31 0.29 0.29 0.29 0.30 0.32 0.33 0.34 0.35 0.36 0.38 0.39 0.38 0.37 0.37 0.34 0.31 0.29 0.26 0.24 0.22 0.22 0.21 0.20 0.20 0.20 0.21 0.21 0.21 0.22 0.22 0.22 0.23 0.24 0.26 0.27 0.26 0.25 0.24 0.23 0.22 0.22 0.21 0.22 0.22 0.22 0.21 0.21 0.20 0.20 0.20 0.20 0.19 0.18 0.17 0.17 0.17 0.17 0.18 0.18 0.18 0.19 0.24 0.27 0.30 0.35 0.39 0.43 0.48 0.51
0.67 0.63 0.60 0.59 0.59 0.58 0.58 0.56 0.54 0.52 0.49 0.47 0.46 0.43 0.38 0.34 0.32 0.32 0.33 0.34 0.35 0.36 0.36 0.36 0.38 0.40 0.39 0.38 0.36 0.35 0.31 0.29 0.28 0.25 0.22 0.21 0.20 0.20 0.19 0.19 0.20 0.21 0.21 0.21 0.21 0.22 0.22 0.23 0.24 0.26 0.26 0.27 0.27 0.26 0.26 0.25 0.24 0.23 0.22 0.21 0.20 0.20 0.20 0.20 0.20 0.20 0.19 0.19 0.18 0.17 0.16 0.16 0.16 0.17 0.17 0.17 0.18 0.19 0.22 0.26 0.30 0.33 0.37 0.40 0.44
0.71 0.67 0.65 0.71 0.73 0.71 0.70 0.67 0.64 0.59 0.52 0.48 0.46 0.43 0.39 0.36 0.35 0.36 0.37 0.38 0.39 0.39 0.37 0.37 0.39 0.39 0.39 0.38 0.36 0.34 0.31 0.29 0.28 0.25 0.22 0.20 0.20 0.20 0.19 0.19 0.20 0.21 0.21 0.21 0.21 0.22 0.23 0.23 0.24 0.25 0.25 0.25 0.26 0.26 0.26 0.26 0.25 0.24 0.23 0.21 0.20 0.20 0.20 0.19 0.20 0.20 0.20 0.19 0.18 0.17 0.16 0.16 0.16 0.16 0.15 0.17 0.19 0.20 0.21 0.22 0.26 0.29 0.32 0.35 0.38
0.73 0.70 0.69 0.75 0.79 0.79 0.78 0.75 0.70 0.63 0.57 0.52 0.49 0.46 0.42 0.39 0.40 0.41 0.41 0.42 0.42 0.40 0.38 0.37 0.39 0.40 0.39 0.38 0.35 0.34 0.31 0.30 0.28 0.25 0.23 0.21 0.20 0.20 0.20 0.20 0.21 0.21 0.21 0.21 0.22 0.22 0.23 0.24 0.24 0.25 0.25 0.25 0.25 0.26 0.26 0.25 0.25 0.24 0.24 0.23 0.21 0.20 0.20 0.20 0.19 0.19 0.19 0.19 0.19 0.18 0.17 0.16 0.16 0.16 0.16 0.17 0.18 0.20 0.21 0.22 0.23 0.25 0.29 0.32 0.34
0.75 0.74 0.72 0.76 0.81 0.83 0.83 0.80 0.74 0.68 0.63 0.57 0.52 0.49 0.46 0.44 0.43 0.44 0.44 0.45 0.45 0.43 0.40 0.40 0.40 0.40 0.38 0.37 0.36 0.33 0.32 0.30 0.29 0.26 0.24 0.22 0.21 0.20 0.20 0.20 0.21 0.21 0.22 0.22 0.22 0.22 0.23 0.23 0.24 0.25 0.26 0.26 0.27 0.27 0.26 0.26 0.26 0.25 0.24 0.23 0.22 0.21 0.21 0.21 0.20 0.19 0.19 0.19 0.18 0.18 0.17 0.16 0.16 0.16 0.16 0.17 0.18 0.19 0.20 0.21 0.22 0.23 0.25 0.27 0.30
0.77 0.76 0.74 0.76 0.83 0.87 0.87 0.82 0.78 0.73 0.64 0.56 0.52 0.50 0.49 0.48 0.47 0.47 0.49 0.50 0.48 0.44 0.40 0.40 0.40 0.38 0.37 0.36 0.34 0.32 0.30 0.29 0.28 0.27 0.25 0.24 0.22 0.20 0.20 0.21 0.21 0.22 0.22 0.22 0.22 0.22 0.22 0.22 0.23 0.25 0.26 0.27 0.28 0.28 0.28 0.28 0.28 0.27 0.25 0.24 0.22 0.22 0.21 0.21 0.20 0.19 0.19 0.18 0.18 0.18 0.17 0.16 0.16 0.15 0.15 0.16 0.17 0.17 0.18 0.20 0.21 0.22 0.23 0.25 0.27
0.77 0.78 0.76 0.76 0.81 0.89 0.92 0.87 0.82 0.74 0.63 0.56 0.53 0.53 0.53 0.51 0.50 0.51 0.55 0.54 0.49 0.44 0.40 0.39 0.39 0.37 0.36 0.34 0.32 0.30 0.30 0.29 0.28 0.27 0.25 0.24 0.23 0.21 0.21 0.22 0.22 0.22 0.22 0.22 0.22 0.22 0.22 0.22 0.23 0.24 0.25 0.27 0.28 0.28 0.29 0.29 0.30 0.29 0.28 0.25 0.24 0.22 0.22 0.22 0.22 0.21 0.21 0.19 0.18 0.17 0.17 0.17 0.16 0.15 0.15 0.15 0.16 0.16 0.16 0.18 0.20 0.21 0.22 0.24 0.25
0.80 0.80 0.78 0.77 0.87 0.94 0.93 0.87 0.79 0.70 0.62 0.57 0.54 0.54 0.54 0.53 0.55 0.58 0.58 0.54 0.48 0.42 0.39 0.39 0.39 0.36 0.35 0.33 0.32 0.30 0.29 0.30 0.29 0.27 0.26 0.25 0.24 0.22 0.22 0.22 0.22 0.23 0.23 0.23 0.22 0.22 0.22 0.22 0.23 0.25 0.25 0.26 0.27 0.28 0.29 0.30 0.31 0.31 0.30 0.28 0.27 0.25 0.25 0.24 0.24 0.22 0.21 0.20 0.19 0.18 0.18 0.17 0.16 0.15 0.15 0.15 0.15 0.15 0.16 0.17 0.18 0.19 0.20 0.21 0.23
0.85 0.84 0.82 0.83 0.91 0.95 0.93 0.89 0.78 0.68 0.62 0.57 0.56 0.56 0.56 0.58 0.63 0.63 0.60 0.52 0.47 0.44 0.41 0.40 0.39 0.36 0.34 0.33 0.32 0.30 0.29 0.30 0.30 0.28 0.26 0.25 0.25 0.24 0.23 0.23 0.23 0.24 0.24 0.24 0.24 0.23 0.23 0.23 0.24 0.25 0.26 0.26 0.27 0.27 0.28 0.30 0.31 0.31 0.31 0.30 0.29 0.28 0.27 0.26 0.25 0.24 0.22 0.21 0.21 0.20 0.19 0.18 0.16 0.15 0.15 0.14 0.14 0.14 0.15 0.15 0.17 0.17 0.18 0.19 0.21
0.90 0.88 0.88 0.88 0.93 0.93 0.90 0.84 0.73 0.64 0.61 0.60 0.59 0.59 0.61 0.65 0.67 0.64 0.59 0.54 0.48 0.45 0.43 0.41 0.38 0.35 0.34 0.34 0.33 0.32 0.30 0.30 0.30 0.29 0.27 0.26 0.25 0.25 0.24 0.23 0.23 0.24 0.24 0.24 0.24 0.24 0.23 0.23 0.25 0.26 0.26 0.26 0.27 0.27 0.29 0.30 0.31 0.32 0.31 0.30 0.29 0.28 0.27 0.27 0.26 0.25 0.24 0.22 0.21 0.21 0.20 0.19 0.17 0.16 0.15 0.14 0.13 0.13 0.13 0.14 0.16 0.17 0.18 0.19 0.19
0.93 0.93 0.92 0.92 0.93 0.92 0.88 0.80 0.70 0.64 0.63 0.63 0.62 0.62 0.66 0.68 0.65 0.62 0.59 0.56 0.52 0.50 0.46 0.41 0.37 0.35 0.35 0.34 0.34 0.33 0.31 0.30 0.30 0.29 0.28 0.26 0.26 0.26 0.25 0.24 0.24 0.24 0.24 0.24 0.25 0.24 0.24 0.24 0.25 0.26 0.27 0.27 0.27 0.28 0.29 0.30 0.30 0.30 0.30 0.29 0.28 0.27 0.27 0.27 0.27 0.26 0.26 0.24 0.22 0.21 0.21 0.20 0.19 0.18 0.17 0.15 0.14 0.14 0.14 0.15 0.15 0.16 0.17 0.18 0.19
0.96 0.95 0.93 0.91 0.91 0.90 0.86 0.78 0.69 0.64 0.64 0.64 0.65 0.67 0.70 0.68 0.64 0.60 0.57 0.55 0.55 0.52 0.47 0.41 0.37 0.36 0.34 0.34 0.34 0.33 0.32 0.31 0.30 0.30 0.29 0.27 0.27 0.27 0.26 0.25 0.24 0.25 0.25 0.25 0.25 0.25 0.25 0.24 0.25 0.26 0.27 0.28 0.28 0.28 0.30 0.29 0.29 0.28 0.28 0.27 0.27 0.26 0.26 0.27 0.27 0.27 0.26 0.25 0.24 0.23 0.22 0.21 0.20 0.19 0.19 0.17 0.16 0.15 0.14 0.15 0.15 0.16 0.17 0.17 0.18
0.97 0.94 0.90 0.89 0.90 0.88 0.83 0.76 0.68 0.66 0.67 0.68 0.69 0.71 0.70 0.67 0.63 0.60 0.57 0.56 0.55 0.51 0.46 0.41 0.39 0.37 0.35 0.34 0.33 0.33 0.33 0.33 0.32 0.32 0.31 0.30 0.28 0.27 0.27 0.26 0.25 0.25 0.25 0.25 0.25 0.26 0.26 0.24 0.24 0.25 0.27 0.29 0.29 0.29 0.29 0.29 0.27 0.27 0.27 0.28 0.27 0.26 0.26 0.26 0.27 0.27 0.26 0.26 0.25 0.24 0.23 0.22 0.21 0.20 0.19 0.19 0.18 0.16 0.15 0.15 0.15 0.16 0.16 0.17 0.18
Wind_Speed
9 10 11 12 13 15 16 17 18 18 19 19 19 19 20 20 19 20 20 20 20 20 20 20 20 20 20 21 21 22 22 23 23 23 24 24 25 26 26 27 28 28 28 28 26 26 25 25 25 25 25 24 23 22 21 21 20 20 20 19 19 18 18 17 17 16 16 16 15 14 14 14 14 14 14 14 14 14 14 13 12 12 11 10 10
9 10 10 11 13 14 16 16 17 18 18 18 18 19 19 19 19 19 19 20 20 20 20 20 20 19 19 20 20 21 21 22 22 23 23 23 24 24 25 26 27 27 28 28 27 26 25 25 25 24 24 24 23 22 21 20 20 20 20 19 18 17 17 16 16 16 16 16 15 14 13 13 12 12 12 13 13 13 13 13 12 11 11 10 10
8 9 10 11 12 14 15 16 17 18 18 18 18 18 19 19 19 19 19 20 20 20 20 20 20 19 19 19 20 20 21 21 22 22 23 23 23 23 24 24 25 26 27 27 27 26 26 25 25 25 24 24 23 22 21 20 19 19 19 18 18 17 17 16 16 16 15 16 15 14 12 12 11 11 11 12 12 12 12 12 11 10 10 9 9
7 8 9 10 12 13 14 15 16 17 18 17 17 17 18 18 18 18 19 19 19 20 20 20 20 19 19 19 19 20 20 21 21 22 22 22 22 22 22 23 23 24 25 25 26 26 25 25 24 24 24 24 23 22 21 20 19 18 18 18 17 17 17 16 16 15 15 15 15 14 13 12 11 10 10 10 11 11 10 10 10 10 9 9 8
7 8 9 10 11 13 13 14 16 17 17 17 16 17 17 18 18 18 18 19 19 20 20 20 20 19 19 19 20 20 20 20 21 21 21 21 21 20 21 21 22 22 23 24 24 25 25 24 24 24 24 24 24 22 21 20 19 18 17 17 16 16 16 15 15 15 15 14 14 13 13 12 11 10 9 9 9 9 9 9 9 9 8 8 8
6 7 8 9 11 12 13 14 15 16 16 16 16 16 17 17 17 17 18 18 19 19 20 20 20 20 20 19 20 20 20 20 20 20 20 20 20 19 19 20 20 21 21 22 23 23 23 23 24 24 23 24 24 23 22 20 19 18 17 16 15 15 14 14 14 14 14 14 13 13 12 11 11 9 9 8 8 8 8 8 8 8 8 8 7
6 6 7 9 10 11 12 13 14 16 16 16 15 15 16 17 17 17 17 18 19 19 20 20 20 20 20 20 20 19 19 19 19 19 20 20 20 19 19 19 19 19 20 21 21 22 22 22 22 23 23 23 23 23 22 21 19 18 17 16 15 14 14 13 13 13 12 12 12 12 11 10 10 9 8 7 7 7 7 7 7 7 8 8 7
6 6 7 8 9 10 11 13 14 15 15 15 15 15 16 16 16 17 17 17 18 19 19 20 20 20 20 20 20 19 19 19 19 19 19 19 19 19 18 18 18 18 19 19 20 20 20 20 20 21 21 22 22 22 22 22 20 19 17 16 15 14 13 12 12 12 11 11 11 10 10 9 9 8 7 7 7 6 6 6 6 6 7 7 7
5 6 6 7 8 9 11 12 13 14 15 15 15 15 15 16 16 16 17 17 17 18 19 19 20 20 20 20 20 20 19 19 19 19 19 19 19 19 18 18 17 17 18 18 19 19 19 19 19 19 20 21 21 22 22 21 21 20 19 17 16 14 13 12 11 10 10 10 9 9 9 8 8 7 7 6 6 6 5 5 5 5 5 6 7
5 5 6 7 8 9 10 11 13 14 14 14 14 14 15 15 16 16 16 17 17 18 18 19 19 20 20 20 20 20 19 19 19 20 20 19 18 18 18 18 17 17 17 17 18 18 18 18 18 18 19 20 20 20 21 21 20 20 20 19 18 16 14 13 12 10 9 8 8 8 8 7 7 6 6 6 5 5 5 4 4 4 4 5 6
5 5 6 6 7 8 9 11 12 13 14 14 14 14 15 15 15 16 16 16 17 17 18 19 19 19 20 20 20 20 20 19 20 20 20 19 18 18 18 18 17 17 17 17 17 17 17 17 17 17 18 18 19 19 20 19 19 19 20 19 19 18 16 15 13 11 9 8 7 7 7 6 6 6 6 5 5 5 4 4 3 3 3 4 4
5 5 5 6 6 7 9 10 11 12 13 14 13 14 14 14 15 15 16 16 17 17 18 18 19 19 19 20 20 20 20 20 20 20 20 20 19 18 17 17 17 17 17 16 16 16 16 16 16 16 16 17 17 18 18 18 18 18 18 19 18 18 18 16 15 13 11 9 8 8 7 6 6 6 5 5 5 5 5 4 3 3 3 3 3
5 5 5 5 6 7 8 9 10 12 13 13 13 13 14 14 14 15 16 16 16 17 18 18 19 19 19 19 20 20 20 20 20 20 20 20 19 18 18 17 17 17 17 16 16 16 16 15 15 15 16 16 16 16 17 17 17 17 17 17 17 18 18 17 16 15 13 11 9 9 8 7 7 6 5 5 5 4 4 4 4 3 3 3 3
5 5 5 5 5 6 7 8 9 11 12 13 13 13 13 13 14 15 15 15 16 17 17 18 19 19 19 19 19 20 20 20 20 20 20 20 20 19 18 17 17 17 17 16 16 16 16 15 15 15 15 15 16 16 16 15 15 15 16 16 16 16 17 17 16 15 14 13 12 10 9 9 8 7 6 6 5 4 4 3 3 3 3 3 3
5 5 4 4 5 6 6 7 9 10 12 12 13 12 12 13 13 14 14 15 15 16 17 18 19 19 19 19 19 19 20 20 20 20 20 20 20 19 18 18 18 17 17 17 16 16 16 15 15 15 15 15 15 16 15 15 14 14 15 15 15 15 15 16 16 15 14 14 13 12 11 10 9 8 7 6 5 5 4 3 3 2 2 2 3
6 5 4 4 4 5 6 7 8 10 11 12 12 12 12 12 13 13 14 15 15 16 17 18 18 19 19 19 19 19 19 20 20 20 20 20 20 19 19 18 18 18 17 17 17 16 16 15 15 15 15 14 15 15 15 14 14 14 14 14 14 14 14 14 15 14 14 13 13 13 12 11 10 9 9 7 6 5 5 4 3 2 2 2 3
6 5 4 4 4 5 5 6 8 9 10 11 11 12 12 12 12 13 14 14 15 15 16 17 18 18 19 19 19 19 19 20 20 20 20 20 19 19 19 18 18 18 18 17 17 16 16 16 15 15 15 15 15 15 15 14 13 13 14 13 13 13 13 13 13 13 13 13 13 13 13 12 12 11 11 9 7 5 4 4 3 3 2 2 2
6 5 5 4 4 5 5 6 7 8 9 10 11 11 11 12 12 13 13 14 14 15 16 17 18 18 19 19 19 19 19 19 20 20 20 20 19 19 18 18 18 18 18 17 17 17 17 17 16 16 15 16 16 15 15 14 13 13 13 13 13 13 12 11 11 12 12 12 13 13 13 13 13 13 13 12 9 6 3 3 3 2 2 1 1
6 6 5 4 4 5 5 5 6 7 8 9 10 10 11 11 12 13 13 14 14 15 16 17 18 18 19 20 20 20 19 19 20 20 20 20 20 19 19 19 18 18 18 17 17 17 17 17 17 16 16 16 16 16 15 14 13 13 13 13 13 13 12 11 11 11 11 12 12 13 13 13 14 14 14 13 11 7 4 2 1 2 1 1 1
6 6 5 5 5 5 5 5 5 6 8 9 9 9 10 11 12 13 13 14 14 15 16 17 17 18 19 20 20 20 19 19 20 20 20 20 20 20 20 19 19 19 18 18 17 17 17 17 17 17 17 16 16 16 15 15 13 13 12 12 12 12 11 11 12 12 11 11 11 12 12 13 14 14 14 14 12 8 4 2 1 1 1 1 0
7 6 6 5 5 5 5 4 5 6 7 8 8 8 9 10 11 12 13 13 14 15 16 17 17 18 19 19 20 20 20 20 20 20 21 21 21 20 20 20 19 19 19 18 17 17 17 17 17 17 17 17 16 16 15 15 14 13 12 12 12 11 11 11 11 11 11 10 10 11 11 12 13 14 15 14 11 8 5 4 2 2 2 2 2
7 7 6 6 5 5 5 4 4 5 6 6 7 8 8 9 10 11 12 13 14 15 16 16 17 18 19 19 20 20 20 20 20 20 21 21 21 21 20 20 20 19 19 18 18 18 18 17 17 17 17 17 17 16 16 15 14 13 13 12 12 11 11 10 11 11 11 10 10 10 11 12 13 14 15 14 10 7 6 5 3 3 3 3 3
8 8 7 6 6 5 5 4 4 5 5 5 6 7 7 8 9 11 12 13 14 15 16 16 17 18 19 19 20 20 20 21 21 21 21 21 22 22 21 21 20 20 19 19 18 18 18 17 17 18 17 17 17 16 16 15 14 14 13 12 12 11 10 10 10 10 10 10 10 11 11 12 13 14 15 13 9 6 5 4 4 3 4 4 4
8 8 8 7 7 6 6 5 5 5 5 5 6 6 7 7 9 10 12 13 14 15 16 16 17 18 18 19 20 20 20 21 21 21 21 22 22 22 22 21 21 20 20 19 19 18 18 18 17 18 17 17 17 16 16 15 15 14 13 13 12 11 10 10 10 10 10 10 10 10 11 12 12 14 14 12 8 5 5 4 4 4 4 5 5
9 9 9 8 8 7 6 6 5 5 5 5 5 6 6 7 8 10 11 13 14 15 16 16 17 18 18 19 20 20 20 21 21 21 21 22 22 22 22 22 21 20 20 19 19 19 18 18 18 17 17 17 17 16 15 15 15 14 14 13 12 11 10 10 10 10 10 10 10 10 10 11 12 13 13 11 8 5 4 4 4 4 4 5 5
10 10 10 9 9 8 7 6 6 6 6 6 6 6 6 7 8 10 11 13 14 15 16 16 17 18 18 19 19 20 20 20 20 21 21 22 22 22 22 21 21 20 20 19 19 19 18 18 18 17 17 17 16 16 15 15 15 14 14 13 12 11 10 10 10 10 10 10 9 9 9 9 10 11 11 11 9 6 4 4 4 4 4 5 5
11 11 11 10 10 9 9 8 7 7 7 7 6 7 7 7 8 10 11 12 14 15 16 16 17 17 18 19 19 20 20 20 20 21 21 21 22 22 21 21 20 20 19 19 18 18 18 18 18 17 17 17 17 16 16 15 15 14 13 13 12 11 11 11 10 10 9 9 9 8 8 8 9 10 11 11 9 6 5 5 4 4 4 4 5
12 12 11 11 11 10 10 9 8 8 8 7 7 7 7 8 9 10 11 12 14 15 16 16 16 17 18 18 19 19 20 20 20 21 21 22 22 21 21 20 20 19 19 19 18 18 18 18 17 17 17 17 17 16 16 15 15 14 14 13 13 12 11 10 10 9 9 8 8 7 7 8 8 9 10 10 9 6 5 5 5 5 5 4 5
13 12 12 12 11 11 11 10 9 9 8 8 8 8 8 9 10 11 12 13 14 16 16 16 16 17 18 18 18 19 19 19 20 21 21 21 21 21 20 20 20 19 19 19 18 18 18 18 18 18 18 18 17 17 17 16 15 14 14 13 12 12 11 10 9 9 8 8 8 7 7 7 8 8 9 9 9 6 4 5 5 5 6 5 5
13 13 13 12 12 12 12 11 10 10 9 9 8 8 9 9 10 11 12 13 14 15 16 16 16 17 17 18 18 18 19 19 20 21 21 21 21 21 21 20 20 19 19 19 18 18 19 19 19 19 18 18 18 18 17 16 15 15 14 13 12 12 11 10 9 9 8 8 7 7 7 7 7 8 8 8 8 6 4 4 5 5 6 6 5
14 14 13 13 13 13 12 12 11 11 10 10 9 9 9 10 11 12 12 13 14 15 15 15 15 16 17 18 18 18 18 19 19 20 20 21 21 21 21 21 20 20 19 19 19 19 19 19 19 19 19 19 18 18 17 16 16 15 14 13 12 12 11 10 10 9 8 7 7 7 7 6 7 7 8 8 8 6 4 4 4 5 6 6 5
15 14 14 14 13 13 13 13 12 11 11 10 10 10 10 10 11 12 12 13 14 15 15 15 15 16 17 17 17 18 18 18 19 19 20 20 20 21 21 21 20 20 20 20 20 20 20 20 20 20 19 19 19 18 18 17 16 14 13 12 12 11 11 11 10 9 8 7 7 7 7 7 6 7 7 7 7 6 4 3 4 5 5 5 5
15 15 14 14 14 13 13 13 13 12 12 11 11 10 10 11 11 12 12 13 14 14 15 14 14 15 16 17 17 17 17 18 18 18 19 19 19 20 20 20 20 20 20 20 21 21 21 21 20 20 20 19 19 18 18 17 16 14 13 12 11 11 11 10 9 9 8 8 7 7 6 6 6 7 7 7 7 6 4 3 3 4 4 5 5
16 16 15 15 14 14 14 14 13 13 13 12 12 11 11 12 12 12 12 12 13 14 14 14 14 14 15 16 17 16 16 17 17 18 18 18 19 19 20 20 20 20 21 21 21 21 21 21 21 21 20 20 19 18 17 17 16 14 13 12 11 10 10 9 9 9 8 8 7 7 6 6 6 6 7 7 7 6 5 3 3 4 4 5 5
16 16 16 15 15 15 15 14 14 13 13 13 12 12 12 12 12 12 12 12 13 13 13 13 13 14 15 16 16 16 16 16 17 17 17 17 18 19 19 19 20 20 21 21 21 22 22 22 21 21 20 20 19 18 17 16 15 15 14 12 11 10 10 9 9 9 8 8 7 7 7 6 6 6 7 7 7 7 6 4 3 3 4 4 4
17 17 16 16 16 15 15 14 14 13 13 13 12 12 12 12 12 12 12 12 12 12 13 13 13 14 15 15 15 15 15 16 16 16 16 17 18 18 19 19 19 20 20 21 21 22 22 22 21 21 20 20 19 18 17 16 15 15 14 13 11 10 10 9 9 8 8 8 7 7 7 7 6 6 7 7 7 7 6 5 3 3 3 3 4
18 17 17 16 16 15 15 14 14 14 13 13 12 12 12 12 12 12 11 11 12 12 12 12 13 13 14 15 14 14 15 15 15 16 16 17 17 18 18 18 19 19 20 21 21 22 22 22 22 21 20 19 18 17 16 16 15 14 14 13 11 10 9 9 9 8 7 7 7 7 7 7 7 6 7 7 7 7 7 6 4 3 3 3 3
18 18 17 16 16 15 15 14 14 14 14 13 13 12 12 12 12 11 11 11 11 12 12 12 12 13 14 14 14 14 14 14 15 15 16 16 17 17 17 18 18 19 20 21 21 22 22 22 21 21 20 19 18 17 16 15 15 14 14 13 11 10 9 9 9 8 8 7 7 7 7 7 7 6 7 7 7 7 7 7 6 4 3 3 4
19 18 17 16 16 15 15 15 14 14 14 14 13 13 12 12 12 12 11 11 12 12 12 12 13 13 14 14 14 14 14 14 15 15 15 16 16 17 17 18 18 19 20 20 21 21 22 21 21 20 20 18 17 16 15 15 14 14 13 12 11 10 9 9 8 9 8 8 7 6 6 7 6 6 6 7 7 7 8 8 7 6 4 3 3
19 18 17 17 16 15 15 15 15 15 15 14 14 13 13 12 12 12 12 12 12 12 12 12 13 13 13 13 13 14 14 14 14 14 15 15 16 16 17 17 18 19 20 20 21 21 21 21 21 20 20 18 17 16 14 14 13 13 12 12 11 11 10 9 8 8 8 8 7 6 7 7 6 6 6 6 7 7 8 8 8 8 6 5 4
20 19 18 18 17 16 15 15 16 16 16 15 14 14 13 13 12 12 12 13 13 13 13 13 13 13 13 13 13 13 14 14 14 14 14 15 15 16 16 17 18 19 19 20 20 21 21 21 21 20 19 18 16 15 14 13 13 12 12 11 11 10 10 9 8 8 8 7 7 6 7 7 6 6 6 7 7 7 7 8 8 8 8 7 6
21 20 19 18 18 17 16 16 16 16 16 15 15 14 14 13 13 13 13 13 13 13 13 14 13 13 13 12 12 13 13 13 13 14 14 14 15 16 16 17 17 18 19 19 20 20 21 21 21 20 19 17 16 14 13 13 12 12 11 11 10 10 9 9 8 8 8 7 7 6 6 6 6 6 6 6 6 7 7 8 8 8 8 8 7
22 21 20 19 19 18 17 17 17 17 17 16 15 15 15 14 14 13 13 13 13 13 14 13 13 13 13 12 12 12 13 13 13 13 14 14 15 15 16 16 17 18 18 19 19 20 20 20 20 19 18 16 15 14 13 12 12 12 11 10 10 9 9 9 8 8 7 7 6 6 6 6 6 6 6 6 6 6 7 7 8 8 8 8 8
23 22 21 20 19 19 19 19 18 18 17 17 16 16 15 14 14 14 14 13 13 14 13 13 13 12 12 13 12 12 13 13 13 13 13 14 14 15 15 16 17 17 18 18 18 19 20 20 20 19 17 15 14 13 13 12 12 11 11 10 9 9 8 8 8 8 7 7 6 6 6 6 6 6 6 6 6 6 6 7 7 7 8 8 8
24 23 22 21 20 19 20 20 19 18 18 17 17 16 15 15 14 14 14 13 13 13 13 13 12 12 13 13 12 12 12 13 13 13 13 14 14 14 15 16 16 17 17 18 18 18 19 19 19 18 16 14 13 13 13 13 12 11 11 10 10 9 8 7 8 8 8 7 6 6 6 5 5 6 6 6 6 6 6 6 7 7 7 8 8
25 24 23 22 20 20 19 19 19 19 18 17 17 16 15 15 15 14 13 13 13 12 12 12 12 12 12 12 12 12 12 12 12 12 13 13 14 14 15 15 15 16 16 17 17 18 18 18 18 17 15 14 13 12 12 12 12 11 11 10 10 9 8 7 7 7 7 7 6 6 5 5 5 5 6 6 6 6 6 6 6 7 7 7 7
25 25 24 22 20 19 19 19 19 19 18 18 17 16 16 15 15 14 13 13 12 12 12 12 12 12 12 12 11 11 11 12 12 12 13 13 14 14 14 14 15 15 16 16 16 17 17 17 17 16 15 13 12 12 12 12 12 11 11 10 10 10 9 8 7 6 6 6 6 6 5 5 5 5 5 5 5 5 6 6 6 6 6 7 7
25 25 24 23 21 20 19 19 19 19 18 17 17 16 16 15 15 14 13 13 12 12 12 12 12 12 12 11 11 11 11 11 12 12 13 13 13 14 14 14 14 15 15 15 16 16 16 16 15 15 14 13 12 11 11 11 11 11 10 10 10 10 9 9 7 6 5 6 6 6 5 5 5 5 5 5 5 5 5 6 6 6 6 6 6
25 24 24 23 22 21 19 19 19 18 18 17 16 16 16 15 14 14 13 13 12 12 12 12 12 12 12 11 10 10 11 11 12 12 13 13 13 13 13 14 14 14 15 15 15 15 15 14 14 13 13 12 11 11 10 11 11 10 10 10 10 10 9 9 8 6 5 5 5 5 5 5 5 4 5 5 5 5 5 5 5 6 6 6 6
25 24 23 22 22 20 19 19 18 18 17 17 16 16 16 15 14 14 13 13 12 12 12 12 12 12 11 11 10 11 11 11 12 12 13 13 13 13 13 13 14 14 14 15 14 14 14 14 13 12 11 11 11 10 10 10 10 10 10 9 9 9 9 9 8 6 5 5 5 5 5 5 4 4 4 4 5 5 5 5 5 5 6 6 5
24 23 23 22 21 20 19 19 18 17 17 17 17 17 16 16 15 14 14 13 13 12 12 12 12 12 11 11 11 11 11 12 12 13 13 13 13 13 13 13 14 14 14 14 14 13 13 13 12 11 10 10 10 10 10 10 9 9 9 9 8 8 8 8 8 7 6 6 6 6 5 5 4 4 4 4 4 4 4 5 5 5 5 5 5
Wind_Direction
344 349 352 354 355 356 357 359 -0 1 2 3 5 6 7 8 9 10 11 12 13 13 13 13 13 12 13 13 15 16 17 18 19 21 23 24 25 26 28 29 32 33 35 36 35 34 33 33 34 36 37 39 41 43 45 47 48 50 51 52 53 54 57 60 63 64 65 68 74 82 86 87 86 84 83 83 81 79 80 83 87 90 93 92 83
343 348 351 353 355 355 357 359 0 1 2 3 5 6 6 7 8 9 11 12 13 13 13 13 13 12 13 13 14 15 15 16 17 19 21 23 24 25 27 29 30 32 33 34 35 35 34 33 32 33 35 37 39 40 43 45 47 48 49 51 52 53 55 58 60 63 64 66 70 77 83 86 86 85 83 81 80 79 79 80 81 84 87 87 80
343 348 350 353 354 355 357 359 0 2 2 3 5 6 6 7 8 9 11 12 12 13 13 13 13 12 13 13 13 13 14 14 15 17 19 21 23 24 26 28 30 31 32 32 33 34 34 34 33 32 33 35 37 38 40 42 44 46 48 48 50 52 54 56 57 59 61 63 66 72 78 82 85 86 85 82 81 80 79 78 78 79 81 79 74
342 347 350 352 353 355 357 359 0 2 2 3 4 6 6 6 7 9 11 12 12 13 13 13 13 12 12 12 12 12 12 13 14 15 17 19 21 23 24 26 28 30 30 30 31 32 32 33 33 33 33 34 35 36 38 39 41 42 44 46 48 50 52 54 56 56 58 60 63 67 72 78 81 83 82 81 80 78 77 75 74 74 73 71 68
339 345 349 351 353 355 357 359 1 2 2 3 4 6 6 6 6 8 10 12 12 13 13 13 13 13 12 12 12 12 12 12 13 15 16 17 18 21 22 23 25 27 27 28 29 30 30 31 32 32 32 33 34 35 36 37 38 39 40 42 45 48 50 52 54 55 57 58 60 63 68 73 77 78 77 76 75 74 72 72 73 71 68 63 61
335 342 347 351 352 354 357 359 1 2 2 3 4 5 5 5 6 8 10 11 12 13 14 14 14 14 13 13 13 12 12 12 13 14 15 16 16 18 19 21 22 24 24 25 27 28 28 28 30 31 31 31 32 33 35 36 37 38 38 39 41 44 47 49 51 53 55 56 58 60 61 65 70 72 70 68 68 67 65 65 68 69 66 61 56
331 339 345 350 351 353 357 359 0 2 2 3 4 4 5 5 6 7 9 10 12 13 14 14 15 14 14 13 13 12 12 12 12 13 14 15 15 16 16 18 20 21 21 23 25 27 27 26 27 29 30 30 30 31 32 34 36 37 37 38 39 40 42 44 46 48 51 53 55 56 56 57 61 64 65 63 60 59 59 59 63 66 64 58 53
326 335 342 347 349 352 356 358 360 1 2 3 4 4 5 5 6 6 8 9 11 12 13 14 14 14 14 13 12 11 11 11 12 12 13 14 14 14 14 15 16 18 19 20 22 24 25 25 26 28 29 30 29 29 29 31 33 35 36 36 36 37 38 39 40 42 45 47 48 50 51 50 50 53 55 56 54 51 52 56 60 63 60 53 47
321 329 338 343 347 351 355 357 360 1 1 2 3 4 5 5 6 6 7 9 10 11 12 13 13 14 14 14 13 11 11 12 13 13 13 13 13 13 12 12 13 14 15 17 19 22 23 24 25 26 28 29 29 29 28 28 30 32 33 33 33 34 34 34 35 36 38 40 40 40 42 40 38 39 40 41 42 42 43 49 54 56 53 47 43
316 323 333 340 344 350 354 356 359 1 1 2 2 4 5 5 6 7 8 9 10 10 11 12 12 13 14 14 13 13 12 13 14 14 13 12 11 11 11 11 11 12 13 15 16 19 21 22 22 24 25 26 27 28 28 28 29 31 32 32 32 32 31 30 29 28 29 31 31 30 33 31 25 24 25 26 28 31 33 39 48 49 41 38 38
310 318 328 336 342 348 352 355 358 0 1 2 2 4 5 6 7 9 9 9 9 10 10 11 12 13 13 14 13 13 13 13 14 14 14 12 11 11 11 11 10 11 12 14 15 16 19 20 21 22 23 24 25 25 26 26 27 29 31 32 31 31 30 29 26 24 22 23 22 21 21 19 12 9 12 14 17 20 24 33 43 41 29 27 31
304 312 323 333 339 346 350 354 357 360 2 3 3 4 5 7 8 10 11 10 10 10 11 11 12 13 13 13 13 13 13 13 14 14 14 13 12 12 11 11 10 10 11 13 14 15 17 18 18 19 20 20 21 22 22 23 24 26 28 30 31 30 29 29 27 25 22 19 17 16 13 7 360 358 360 3 7 11 19 30 37 37 30 28 26
299 307 319 329 336 343 348 352 356 359 2 3 4 5 5 7 10 11 12 11 11 12 12 12 13 13 13 13 13 13 13 13 13 14 14 14 13 12 12 11 11 10 10 11 12 14 15 15 15 16 15 15 16 17 18 19 20 23 25 26 28 28 29 29 28 27 26 24 21 17 11 5 360 355 349 347 349 354 5 15 20 25 28 26 21
295 302 313 322 332 340 345 350 354 358 1 3 4 4 5 8 11 12 12 12 13 14 14 13 13 13 13 13 13 12 12 13 13 14 14 14 14 13 13 12 12 11 10 10 10 11 12 11 11 11 11 11 11 12 13 15 17 19 21 22 25 26 28 28 27 26 27 28 27 24 17 10 6 359 347 337 333 334 340 346 351 5 17 17 15
290 297 305 315 326 336 341 347 352 356 360 2 3 4 6 9 12 12 12 13 14 15 15 14 14 14 14 14 13 13 13 13 14 14 14 14 14 14 13 13 12 11 10 10 8 8 9 8 8 8 8 9 8 6 8 11 13 16 18 19 21 24 26 27 26 26 26 27 28 27 25 19 11 1 348 333 322 315 312 311 315 333 354 2 6
285 289 295 304 317 328 336 344 350 355 360 2 4 6 8 10 12 13 13 14 14 15 15 15 14 14 14 14 13 13 13 14 14 14 13 13 13 13 12 12 12 11 10 9 7 7 7 7 7 6 7 8 7 4 4 6 9 12 14 15 18 21 24 25 26 27 29 29 28 27 27 23 16 8 358 344 324 304 291 285 285 292 311 334 354
280 281 284 293 307 318 329 340 348 355 0 3 6 9 11 12 13 13 15 15 15 16 16 15 14 14 14 14 14 13 13 13 13 13 12 12 12 12 11 11 11 11 10 8 7 6 6 6 5 5 5 6 5 3 3 3 4 7 8 10 13 16 18 19 22 24 27 29 28 26 24 22 18 13 7 360 346 318 289 277 272 271 285 304 327
275 274 274 284 297 308 320 335 346 353 359 3 7 10 13 14 14 14 16 16 16 16 16 15 14 14 14 14 14 13 12 11 11 11 11 11 11 11 11 10 10 10 9 8 7 5 5 5 5 3 3 2 2 2 2 1 1 2 2 4 7 9 9 10 12 15 16 18 19 18 17 16 14 12 9 6 3 352 322 291 274 259 260 279 290
270 268 268 277 290 299 312 328 341 350 356 1 6 11 14 15 15 16 16 16 17 16 15 15 14 13 13 13 13 12 11 10 9 9 9 9 9 9 8 8 9 8 7 6 6 5 5 5 5 3 2 0 360 0 360 359 359 359 358 360 2 3 2 2 5 6 7 8 9 10 10 10 9 9 9 7 7 5 356 329 283 235 220 248 279
267 263 263 272 282 291 304 320 334 344 352 359 5 10 14 16 16 17 17 17 17 15 14 13 13 12 11 11 11 10 9 8 8 7 7 7 7 6 6 6 6 6 5 4 4 5 4 4 3 3 1 360 359 359 359 359 358 356 356 357 357 355 355 358 3 4 5 6 7 7 9 9 8 9 10 9 9 10 15 23 35 165 178 185 192
262 257 257 264 274 283 295 309 325 338 348 356 3 8 12 15 16 17 17 16 15 13 12 11 11 10 9 9 9 9 8 7 6 6 6 7 6 6 5 5 4 4 3 3 3 4 3 2 2 1 0 360 359 359 358 358 358 356 355 355 352 349 350 355 360 2 3 4 5 7 9 9 9 10 11 9 9 15 29 41 59 98 118 124 120
257 252 251 257 264 273 284 297 314 329 341 353 1 5 9 13 14 15 15 14 13 11 8 7 8 7 7 7 7 7 6 5 5 5 6 7 7 6 5 5 4 2 2 2 3 2 1 0 0 0 359 359 359 359 358 357 357 356 355 352 348 347 348 352 356 359 2 4 6 8 9 9 10 10 9 8 11 22 36 45 60 89 105 111 108
253 249 247 250 257 264 272 284 300 315 329 344 356 1 4 8 10 11 11 10 9 7 5 4 5 5 4 4 5 5 4 4 4 4 5 6 7 7 6 5 4 3 2 2 1 0 359 359 360 360 359 358 359 358 357 357 356 355 353 350 348 347 347 349 354 359 2 4 6 7 8 8 9 9 9 11 17 31 44 51 62 85 103 109 106
250 246 244 246 251 257 265 274 286 298 312 330 344 352 357 0 3 5 5 5 4 3 2 2 2 3 3 2 3 3 3 3 3 3 4 5 5 6 5 5 4 3 2 1 1 360 359 360 0 0 359 358 358 357 357 357 357 354 352 350 349 347 347 350 353 357 2 4 6 6 6 7 9 9 10 15 24 38 51 59 65 80 101 109 106
246 243 241 243 247 252 258 265 274 283 295 311 328 340 346 351 355 357 358 360 0 360 360 359 359 0 1 1 1 2 2 2 2 2 2 3 3 4 4 4 4 3 2 2 2 1 2 2 2 1 360 358 357 356 356 357 356 355 353 352 350 349 351 352 352 357 2 5 6 6 6 7 9 10 13 19 29 41 56 68 71 79 99 109 104
244 242 240 241 244 248 253 258 265 273 282 296 312 325 333 339 346 349 351 353 355 356 356 356 356 357 358 359 360 0 360 0 0 0 0 1 1 2 2 4 4 4 4 3 3 3 4 3 2 1 0 359 358 357 356 356 354 354 353 353 353 353 354 355 355 358 1 3 4 6 6 7 10 13 17 23 32 44 61 74 76 77 92 106 105
242 240 238 239 242 246 250 254 259 266 275 286 299 313 322 329 337 341 343 346 349 351 351 352 353 354 355 357 358 358 358 358 359 359 359 359 359 0 1 2 4 4 4 4 3 3 4 3 2 2 1 360 358 357 356 354 353 353 353 353 353 354 356 356 356 357 0 1 1 3 5 7 11 16 21 25 32 44 60 70 71 72 83 98 104
241 239 237 238 241 245 248 251 256 263 271 280 291 302 312 320 327 333 336 340 343 345 346 347 348 350 352 354 355 356 356 357 357 357 357 358 359 359 0 2 3 3 4 3 2 2 2 1 1 1 0 359 358 357 356 355 354 353 353 352 353 353 354 354 354 356 1 1 358 359 4 9 13 17 22 27 32 41 57 67 69 73 80 91 99
239 238 237 238 241 245 248 250 255 261 268 276 285 295 305 313 319 326 330 334 338 340 342 343 344 347 350 352 353 354 354 355 355 356 357 358 359 360 1 2 2 3 4 3 1 360 360 359 360 1 360 359 359 358 357 355 354 353 352 352 352 351 352 354 355 358 1 1 359 360 2 7 12 15 20 27 32 39 58 68 68 73 78 84 94
237 236 237 238 241 244 247 249 253 258 265 272 280 290 302 310 316 321 324 328 333 337 339 340 342 345 348 350 351 352 352 353 354 356 358 359 0 1 1 2 2 3 2 1 359 359 359 359 360 360 359 359 359 359 357 356 355 353 353 353 353 353 354 356 359 1 2 2 2 2 2 4 9 13 17 24 29 37 58 73 71 72 73 74 82
236 235 237 239 240 243 246 248 251 256 262 267 274 285 298 307 314 318 321 325 330 334 336 338 341 344 347 348 349 350 352 353 355 357 358 359 -0 1 1 1 1 2 1 359 359 0 0 359 359 358 358 357 358 357 357 356 355 354 353 353 355 356 357 358 0 1 2 4 5 5 5 4 6 10 15 20 25 33 55 81 81 75 71 69 70
236 235 236 238 240 243 245 247 249 254 258 262 269 280 292 301 309 315 319 323 327 331 333 335 338 342 346 348 349 350 351 353 355 356 357 358 359 0 0 0 1 1 1 360 1 1 0 359 359 358 357 357 357 357 357 357 356 354 353 353 354 357 358 360 1 1 3 6 8 8 8 9 9 10 13 17 22 30 50 81 86 80 75 72 71
236 236 237 238 240 242 245 246 249 252 255 259 265 276 287 296 302 310 316 321 325 328 330 332 335 340 345 347 348 349 351 353 354 354 356 357 359 360 360 360 0 1 1 1 1 1 360 360 360 359 358 358 357 358 358 359 358 356 354 353 353 354 356 358 0 2 6 10 12 12 12 13 14 15 16 18 23 29 46 78 90 87 81 78 78
236 236 237 238 239 241 243 246 248 250 253 258 264 274 285 292 298 304 311 316 320 323 326 328 332 338 342 345 346 348 350 351 352 353 355 357 358 359 358 358 359 1 1 0 0 0 359 359 360 359 358 358 358 359 360 0 359 358 357 355 354 355 356 357 1 6 10 13 17 19 18 18 20 21 21 24 27 33 48 77 96 91 84 83 85
236 237 236 238 241 243 244 246 248 249 253 257 264 274 284 290 295 301 306 311 315 318 321 324 329 335 339 341 343 346 348 349 350 351 353 355 356 357 356 355 357 359 359 359 359 359 359 359 359 359 359 358 359 360 1 1 1 1 0 359 358 359 360 1 2 5 9 14 19 23 25 26 28 28 28 29 31 36 48 70 96 97 90 92 94
235 236 236 238 241 244 245 246 247 249 252 257 265 275 283 288 292 297 302 307 311 314 317 321 326 332 335 337 341 344 345 347 348 349 351 352 353 353 353 354 355 357 358 358 359 359 358 359 359 359 358 358 359 1 2 2 3 3 3 3 3 4 6 7 5 4 6 13 19 24 28 30 32 34 34 35 35 38 45 61 91 104 99 101 106
233 235 236 238 240 242 244 245 246 248 251 256 263 273 280 285 288 293 298 303 306 310 314 318 323 327 331 334 338 340 342 344 347 348 350 350 351 351 351 352 354 356 356 357 358 358 358 358 358 358 358 358 359 1 2 3 4 4 5 6 8 10 13 14 12 10 11 15 21 25 29 32 34 35 37 39 41 42 44 52 74 101 107 106 113
232 233 234 236 238 240 241 242 244 246 249 253 260 269 276 280 284 289 294 298 302 306 311 315 319 324 328 331 334 336 338 340 344 345 346 346 347 348 349 351 353 354 355 356 357 357 358 358 358 358 357 357 358 0 2 5 6 7 8 10 12 15 17 18 18 19 20 22 25 28 32 35 37 37 38 41 44 47 48 50 57 76 99 109 116
231 231 232 234 237 238 238 239 242 245 248 252 258 266 272 276 281 285 289 293 297 302 308 312 316 321 325 327 329 332 334 336 339 341 341 342 344 346 348 349 350 351 353 354 355 356 358 358 358 357 356 356 357 359 1 5 7 8 10 13 15 17 18 19 22 26 27 27 28 33 36 38 40 41 42 45 48 50 52 54 56 62 77 99 116
229 230 231 233 235 238 239 241 242 243 245 249 255 262 268 273 278 282 285 289 294 299 304 309 313 317 321 323 325 328 331 333 335 337 338 340 342 344 345 347 348 349 350 352 354 355 357 357 357 357 356 356 357 359 1 4 7 8 9 12 15 17 18 20 23 27 29 29 31 36 39 39 41 44 47 50 52 54 56 59 61 64 70 81 99
227 229 231 233 235 238 241 242 242 242 243 247 253 260 266 271 275 279 283 287 291 296 301 305 310 314 317 319 321 325 329 331 333 335 336 337 340 342 343 344 345 346 348 350 352 354 356 357 357 357 357 358 359 1 3 6 7 8 8 10 13 16 18 21 23 25 29 31 33 38 41 40 41 44 48 51 54 57 60 63 66 67 69 74 81
226 228 230 232 235 238 240 242 241 241 243 247 254 260 265 268 272 277 281 286 290 294 298 302 305 310 314 315 318 322 326 329 331 333 334 335 337 340 341 342 343 345 347 349 351 354 355 356 357 358 359 0 1 3 6 8 9 10 10 10 12 14 18 21 23 24 28 32 35 40 43 43 43 46 49 51 54 58 61 64 66 68 70 73 76
227 228 229 232 236 239 241 243 242 240 242 247 253 259 263 266 270 275 279 283 287 291 294 298 302 307 312 314 316 319 322 325 328 331 332 333 335 337 339 340 341 344 346 349 351 354 355 356 357 358 0 2 4 6 8 9 10 11 12 11 12 14 17 21 23 25 28 32 36 41 46 48 48 49 51 52 55 58 61 64 67 70 72 74 76
227 228 230 232 236 241 244 245 243 240 241 246 252 257 260 263 267 272 276 280 285 289 292 295 299 304 309 311 314 316 318 321 325 329 331 332 334 335 337 338 340 342 345 348 351 353 355 356 358 359 1 4 6 8 10 10 9 10 12 12 13 15 17 21 23 26 29 33 37 41 46 49 51 53 55 56 57 59 61 63 67 70 73 75 76
226 228 229 231 236 242 245 245 242 240 241 245 250 254 257 260 264 268 273 278 283 287 290 294 297 300 304 308 311 314 316 320 324 327 329 331 333 334 336 337 339 342 345 348 351 353 354 356 358 359 1 4 6 8 9 9 10 11 12 13 14 15 16 18 20 23 28 34 38 39 41 45 50 54 58 60 62 64 65 65 67 70 74 76 77
226 227 228 230 235 241 244 241 237 237 239 243 247 251 254 258 262 266 271 277 282 284 287 291 293 295 299 304 308 311 315 320 323 324 327 330 332 334 335 336 338 341 344 347 350 352 354 356 358 359 0 2 6 8 8 8 10 12 13 14 15 15 16 16 16 20 26 34 38 40 40 43 48 52 57 62 66 68 69 70 70 72 75 78 79
225 227 227 229 234 239 240 236 233 234 237 241 245 249 253 257 260 263 269 276 280 282 284 288 290 292 296 301 305 309 313 318 321 322 325 328 331 333 334 335 337 340 343 346 349 351 353 355 357 360 0 2 5 7 8 8 11 13 15 16 17 17 17 18 17 18 24 32 39 42 42 44 48 52 56 60 65 68 70 71 72 74 76 79 81
225 226 228 230 234 238 237 234 232 233 236 239 243 248 252 256 259 261 265 271 276 279 282 285 288 290 293 297 302 306 311 315 318 320 323 326 329 331 332 333 335 338 341 344 347 349 351 353 356 359 1 2 3 5 7 9 12 15 17 19 20 19 20 21 21 20 24 32 39 44 45 47 50 53 55 58 63 66 70 71 71 73 75 78 80
225 226 228 230 233 236 234 232 231 233 235 237 242 247 251 255 258 261 263 267 271 275 279 281 283 286 290 293 297 301 306 311 315 318 320 323 327 329 330 331 333 335 339 342 344 346 348 350 353 356 359 1 3 4 6 9 12 14 18 20 21 22 22 22 23 25 30 37 41 43 45 48 51 53 55 57 62 67 71 73 73 73 75 76 77
224 226 227 229 231 232 231 231 231 232 234 237 241 245 249 253 256 259 262 265 268 272 275 278 280 284 287 289 292 296 301 307 313 316 319 321 324 326 328 329 331 333 336 339 342 343 344 346 349 352 355 358 1 2 4 6 8 11 15 18 20 22 23 24 25 29 38 46 47 45 44 45 49 53 56 58 63 69 74 77 77 78 78 78 79
223 224 226 227 229 229 229 229 231 233 234 238 241 245 248 252 255 258 260 262 266 268 272 276 279 282 284 286 289 294 299 304 310 314 316 318 321 324 325 326 328 330 333 336 338 339 340 342 345 347 349 352 356 358 0 2 3 6 10 12 15 18 22 25 27 31 39 47 50 49 46 45 48 52 55 59 64 70 75 78 81 83 84 83 83